SITRO-AIS 10 (BURDAEV)

Last updated on Sun Dec 14 2025 00:03:50 GMT+0000 (Coordinated Universal Time)

1 57199U 23091AK 25347.31771675 .00029286 00000+0 97893-3 0 9999 2 57199 97.5358 49.2243 0008415 24.2192 335.9443 15.30927913136250
UTC large
Height (km)
Speed (km/s)
/
Latitude / Longitude
Inclination (degrees)
Orbital Period (minutes)
Azimuth
Elevation
Range (km)
Doppler Factor

Next 0 passes for location: London (51.5072 / 0.1276)

Sorry there are no passes over London.